• In Belarus
  • List of Countries
  • For 7 days
  • Water Temperature
  • Satellite Maps
  • Weather Map
  • Weather Widgets
  • user-avatar
    Login

    Hourly Weather Herāt

    Today, 18 October, Thursday

    Time Temperature Precipitation Wind Pressure Humidity
    00:00 +9°C° 0 mm 3 mps 682 mmHg 29%
    01:00 +9°C° 0 mm 3 mps 682 mmHg 29%
    02:00 +9°C° 0 mm 3 mps 681 mmHg 30%
    03:00 +8°C° 0 mm 3 mps 681 mmHg 30%
    04:00 +8°C° 0 mm 3 mps 681 mmHg 31%
    05:00 +8°C° 0 mm 3 mps 681 mmHg 31%
    06:00 +9°C° 0 mm 3 mps 681 mmHg 31%
    07:00 +9°C° 0 mm 3 mps 681 mmHg 31%
    08:00 +11°C° 0 mm 3 mps 682 mmHg 28%
    09:00 +13°C° 0 mm 3 mps 682 mmHg 25%
    10:00 +16°C° 0 mm 3 mps 682 mmHg 22%
    11:00 +17°C° 0 mm 3 mps 682 mmHg 21%
    12:00 +18°C° 0 mm 4 mps 682 mmHg 19%
    13:00 +19°C° 0 mm 4 mps 681 mmHg 18%
    14:00 +19°C° 0 mm 5 mps 681 mmHg 19%
    15:00 +17°C° 0 mm 5 mps 681 mmHg 19%
    16:00 +17°C° 0 mm 5 mps 681 mmHg 20%
    17:00 +15°C° 0 mm 5 mps 681 mmHg 22%
    18:00 +14°C° 0 mm 4 mps 681 mmHg 23%
    19:00 +13°C° 0 mm 4 mps 681 mmHg 25%
    20:00 +12°C° 0 mm 4 mps 682 mmHg 26%
    21:00 +12°C° 0 mm 3 mps 682 mmHg 27%
    22:00 +11°C° 0 mm 3 mps 682 mmHg 28%
    23:00 +11°C° 0 mm 3 mps 682 mmHg 29%

    Tomorrow, 19 October, Friday

    Time Temperature Precipitation Wind Pressure Humidity
    00:00 +10°C° 0 mm 3 mps 682 mmHg 30%
    01:00 +10°C° 0 mm 2 mps 682 mmHg 31%
    02:00 +9°C° 0 mm 2 mps 682 mmHg 32%
    03:00 +9°C° 0 mm 2 mps 681 mmHg 33%
    04:00 +9°C° 0 mm 2 mps 681 mmHg 34%
    05:00 +9°C° 0 mm 2 mps 682 mmHg 33%
    06:00 +9°C° 0 mm 2 mps 682 mmHg 32%
    07:00 +9°C° 0 mm 2 mps 682 mmHg 32%
    08:00 +12°C° 0 mm 3 mps 683 mmHg 28%
    09:00 +14°C° 0 mm 3 mps 683 mmHg 24%
    10:00 +17°C° 0 mm 3 mps 684 mmHg 21%
    11:00 +18°C° 0 mm 3 mps 683 mmHg 19%
    12:00 +19°C° 0 mm 4 mps 683 mmHg 17%
    13:00 +20°C° 0 mm 4 mps 683 mmHg 16%
    14:00 +20°C° 0 mm 4 mps 683 mmHg 16%
    15:00 +19°C° 0 mm 5 mps 682 mmHg 16%
    16:00 +19°C° 0 mm 5 mps 682 mmHg 17%
    17:00 +17°C° 0 mm 5 mps 682 mmHg 19%
    18:00 +15°C° 0 mm 4 mps 682 mmHg 22%
    19:00 +14°C° 0 mm 4 mps 682 mmHg 24%
    20:00 +13°C° 0 mm 3 mps 682 mmHg 25%
    21:00 +13°C° 0 mm 3 mps 682 mmHg 27%
    22:00 +13°C° 0 mm 2 mps 682 mmHg 28%
    23:00 +13°C° 0 mm 2 mps 682 mmHg 28%

    Day after tomorrow, 20 October, Saturday

    Time Temperature Precipitation Wind Pressure Humidity
    00:00 +12°C° 0 mm 2 mps 682 mmHg 29%
    01:00 +12°C° 0 mm 2 mps 682 mmHg 30%
    02:00 +12°C° 0 mm 2 mps 682 mmHg 30%
    03:00 +10°C° 0 mm 2 mps 681 mmHg 31%
    04:00 +10°C° 0 mm 2 mps 681 mmHg 31%
    05:00 +10°C° 0 mm 2 mps 682 mmHg 30%
    06:00 +12°C° 0 mm 1 mps 682 mmHg 29%
    07:00 +12°C° 0 mm 1 mps 682 mmHg 28%
    08:00 +14°C° 0 mm 1 mps 683 mmHg 25%
    09:00 +16°C° 0 mm 1 mps 683 mmHg 21%
    10:00 +19°C° 0 mm 1 mps 684 mmHg 17%
    11:00 +21°C° 0 mm 1 mps 684 mmHg 16%
    12:00 +21°C° 0 mm 2 mps 683 mmHg 14%
    13:00 +23°C° 0 mm 2 mps 683 mmHg 13%
    14:00 +23°C° 0 mm 2 mps 683 mmHg 13%
    15:00 +21°C° 0 mm 2 mps 683 mmHg 13%
    16:00 +21°C° 0 mm 2 mps 683 mmHg 13%
    17:00 +20°C° 0 mm 2 mps 683 mmHg 16%
    18:00 +18°C° 0 mm 2 mps 683 mmHg 18%
    19:00 +17°C° 0 mm 2 mps 683 mmHg 20%
    20:00 +16°C° 0 mm 1 mps 682 mmHg 21%
    21:00 +15°C° 0 mm 1 mps 682 mmHg 22%
    22:00 +15°C° 0 mm 1 mps 682 mmHg 23%
    23:00 +14°C° 0 mm 1 mps 682 mmHg 23%

    21 October, Sunday

    Time Temperature Precipitation Wind Pressure Humidity
    00:00 +14°C° 0 mm 1 mps 682 mmHg 23%
    01:00 +13°C° 0 mm 1 mps 681 mmHg 23%
    02:00 +13°C° 0 mm 1 mps 681 mmHg 23%
    03:00 +12°C° 0 mm 1 mps 681 mmHg 24%
    04:00 +12°C° 0 mm 1 mps 681 mmHg 24%
    05:00 +12°C° 0 mm 1 mps 681 mmHg 23%
    06:00 +13°C° 0 mm 1 mps 681 mmHg 22%
    07:00 +14°C° 0 mm 1 mps 682 mmHg 20%
    08:00 +16°C° 0 mm 2 mps 682 mmHg 17%
    09:00 +18°C° 0 mm 2 mps 683 mmHg 15%
    10:00 +21°C° 0 mm 2 mps 684 mmHg 12%
    11:00 +22°C° 0 mm 3 mps 683 mmHg 11%
    12:00 +24°C° 0 mm 3 mps 683 mmHg 11%
    13:00 +25°C° 0 mm 3 mps 683 mmHg 10%
    14:00 +25°C° 0 mm 3 mps 682 mmHg 10%
    15:00 +24°C° 0 mm 3 mps 682 mmHg 10%
    16:00 +24°C° 0 mm 3 mps 682 mmHg 10%
    17:00 +21°C° 0 mm 2 mps 682 mmHg 12%
    18:00 +19°C° 0 mm 2 mps 682 mmHg 14%
    19:00 +18°C° 0 mm 1 mps 681 mmHg 16%
    20:00 +18°C° 0 mm 1 mps 681 mmHg 16%
    21:00 +17°C° 0 mm 2 mps 681 mmHg 16%
    22:00 +16°C° 0 mm 2 mps 682 mmHg 17%
    23:00 +16°C° 0 mm 2 mps 681 mmHg 17%

    22 October, Monday

    Time Temperature Precipitation Wind Pressure Humidity
    00:00 +16°C° 0 mm 3 mps 681 mmHg 17%
    01:00 +14°C° 0 mm 3 mps 681 mmHg 17%
    02:00 +14°C° 0 mm 3 mps 681 mmHg 17%
    03:00 +14°C° 0 mm 3 mps 680 mmHg 17%
    04:00 +14°C° 0 mm 3 mps 680 mmHg 17%
    05:00 +14°C° 0 mm 3 mps 681 mmHg 16%
    06:00 +14°C° 0 mm 3 mps 681 mmHg 16%
    07:00 +16°C° 0 mm 3 mps 681 mmHg 16%
    08:00 +18°C° 0 mm 3 mps 682 mmHg 15%
    09:00 +20°C° 0 mm 3 mps 682 mmHg 14%
    10:00 +24°C° 0 mm 3 mps 683 mmHg 13%
    11:00 +25°C° 0 mm 3 mps 682 mmHg 13%
    12:00 +26°C° 0 mm 3 mps 682 mmHg 13%
    13:00 +26°C° 0 mm 4 mps 681 mmHg 13%
    14:00 +26°C° 0 mm 4 mps 681 mmHg 14%
    15:00 +26°C° 0 mm 3 mps 681 mmHg 14%
    16:00 +26°C° 0 mm 3 mps 681 mmHg 15%
    17:00 +24°C° 0 mm 3 mps 681 mmHg 17%
    18:00 +23°C° 0 mm 2 mps 680 mmHg 19%
    19:00 +20°C° 0 mm 2 mps 680 mmHg 21%
    20:00 +20°C° 0 mm 2 mps 680 mmHg 22%
    21:00 +19°C° 0 mm 2 mps 680 mmHg 22%
    22:00 +19°C° 0 mm 2 mps 680 mmHg 23%
    23:00 +18°C° 0 mm 2 mps 680 mmHg 24%

    23 October, Tuesday

    Time Temperature Precipitation Wind Pressure Humidity
    00:00 +18°C° 0 mm 2 mps 680 mmHg 25%
    01:00 +18°C° 0 mm 2 mps 680 mmHg 26%
    02:00 +18°C° 0 mm 2 mps 680 mmHg 27%
    03:00 +17°C° 0 mm 2 mps 680 mmHg 28%
    04:00 +17°C° 0 mm 2 mps 680 mmHg 29%
    05:00 +18°C° 0 mm 2 mps 680 mmHg 29%
    06:00 +18°C° 0 mm 2 mps 680 mmHg 28%
    07:00 +18°C° 0 mm 3 mps 681 mmHg 28%
    08:00 +20°C° 0 mm 2 mps 681 mmHg 26%
    09:00 +23°C° 0 mm 2 mps 682 mmHg 23%
    10:00 +25°C° 0 mm 2 mps 682 mmHg 21%
    11:00 +26°C° 0 mm 2 mps 682 mmHg 20%
    12:00 +26°C° 0 mm 3 mps 682 mmHg 20%
    13:00 +27°C° 0 mm 3 mps 681 mmHg 19%
    14:00 +27°C° 0 mm 3 mps 681 mmHg 19%
    15:00 +27°C° 0 mm 3 mps 681 mmHg 20%
    16:00 +27°C° 0 mm 3 mps 681 mmHg 20%
    17:00 +25°C° 0 mm 3 mps 681 mmHg 22%
    18:00 +24°C° 0 mm 3 mps 681 mmHg 24%
    19:00 +21°C° 0 mm 2 mps 682 mmHg 26%
    20:00 +21°C° 0 mm 2 mps 682 mmHg 27%
    21:00 +20°C° 0 mm 2 mps 682 mmHg 27%
    22:00 +20°C° 0 mm 2 mps 682 mmHg 28%
    23:00 +19°C° 0 mm 2 mps 681 mmHg 28%
    Show more